DLA5CT EDDM-LIPZ

Flight info

Callsign DLA5CT
Flight time 0h 44m
Altitude 33000
Route TURBU7S/26L TURBU Y107 TOBSO DCT BAKOR DCT NAXAV/N0404F210 DCT ADOSA/N0389F190 L612 ALBET
Aircraft E195/M-SDE3GILORVW/S

Departure

Time 2026-05-05 20:05
Airport Munich Airport (EDDM)

Arrival

Time 2026-05-05 20:49
Airport Venice Marco Polo Airport (LIPZ)
Time Latitude Longitude Altitude Speed Heading
2026-05-05 19:32 48.35254 11.80660 1484 ft 0 kts 353°
2026-05-05 19:55 48.35248 11.80661 1474 ft 4 kts 353°
2026-05-05 19:55 48.35222 11.80665 1477 ft 4 kts 353°
2026-05-05 19:55 48.35195 11.80670 1474 ft 4 kts 353°
2026-05-05 19:56 48.35172 11.80674 1477 ft 4 kts 339°
2026-05-05 19:56 48.35156 11.80696 1474 ft 4 kts 277°
2026-05-05 19:56 48.35156 11.80736 1474 ft 4 kts 263°
2026-05-05 19:56 48.35157 11.80744 1474 ft 3 kts 263°
2026-05-05 19:59 48.35155 11.80714 1479 ft 7 kts 263°
2026-05-05 19:59 48.35146 11.80601 1484 ft 13 kts 263°
2026-05-05 19:59 48.35136 11.80466 1484 ft 13 kts 263°
2026-05-05 19:59 48.35124 11.80324 1475 ft 14 kts 258°
2026-05-05 20:00 48.35107 11.80175 1484 ft 15 kts 263°
2026-05-05 20:00 48.35096 11.80017 1478 ft 16 kts 264°
2026-05-05 20:00 48.35084 11.79853 1472 ft 16 kts 264°
2026-05-05 20:00 48.35073 11.79714 1478 ft 10 kts 263°
2026-05-05 20:01 48.35025 11.79663 1484 ft 9 kts 171°
2026-05-05 20:01 48.34960 11.79676 1481 ft 10 kts 173°
2026-05-05 20:01 48.34904 11.79687 1484 ft 7 kts 172°
2026-05-05 20:01 48.34854 11.79697 1482 ft 8 kts 173°
2026-05-05 20:02 48.34794 11.79708 1481 ft 9 kts 173°
2026-05-05 20:02 48.34735 11.79713 1484 ft 10 kts 179°
2026-05-05 20:02 48.34678 11.79653 1484 ft 12 kts 233°
2026-05-05 20:02 48.34619 11.79530 1484 ft 16 kts 234°
2026-05-05 20:03 48.34551 11.79394 1484 ft 17 kts 233°
2026-05-05 20:03 48.34500 11.79291 1479 ft 8 kts 232°
2026-05-05 20:03 48.34455 11.79203 1482 ft 13 kts 233°
2026-05-05 20:03 48.34385 11.79123 1484 ft 8 kts 206°
2026-05-05 20:04 48.34372 11.79060 1484 ft 8 kts 265°
2026-05-05 20:04 48.34345 11.78705 1484 ft 69 kts 263°
2026-05-05 20:04 48.34266 11.77650 1484 ft 133 kts 264°
2026-05-05 20:04 48.34140 11.76046 1692 ft 171 kts 265°
2026-05-05 20:05 48.34039 11.74174 2437 ft 191 kts 264°
2026-05-05 20:05 48.33875 11.72150 3256 ft 189 kts 260°
2026-05-05 20:05 48.33266 11.70392 3997 ft 201 kts 224°
2026-05-05 20:05 48.31942 11.69669 4767 ft 212 kts 186°
2026-05-05 20:06 48.30479 11.70073 5546 ft 219 kts 162°
2026-05-05 20:06 48.29087 11.71157 6181 ft 230 kts 150°
2026-05-05 20:06 48.27755 11.72506 6867 ft 232 kts 150°
2026-05-05 20:06 48.26408 11.73780 7520 ft 233 kts 152°
2026-05-05 20:07 48.25031 11.75075 8174 ft 234 kts 152°
2026-05-05 20:07 48.23644 11.76373 8819 ft 236 kts 152°
2026-05-05 20:07 48.22254 11.77678 9474 ft 237 kts 152°
2026-05-05 20:07 48.20848 11.78991 10099 ft 238 kts 152°
2026-05-05 20:08 48.19436 11.80310 10683 ft 241 kts 152°
2026-05-05 20:08 48.17976 11.81596 11259 ft 247 kts 158°
2026-05-05 20:08 48.16281 11.82609 11390 ft 276 kts 165°
2026-05-05 20:08 48.14403 11.83500 11683 ft 298 kts 166°
2026-05-05 20:09 48.12357 11.84483 12079 ft 317 kts 165°
2026-05-05 20:09 48.10235 11.85532 12854 ft 324 kts 164°
2026-05-05 20:09 48.08091 11.86599 13779 ft 326 kts 164°
2026-05-05 20:09 48.05928 11.87678 14678 ft 328 kts 164°
2026-05-05 20:10 48.03755 11.88761 15573 ft 330 kts 164°
2026-05-05 20:10 48.01562 11.89849 16376 ft 335 kts 165°
2026-05-05 20:10 47.99335 11.90954 17186 ft 339 kts 165°
2026-05-05 20:10 47.97116 11.92050 17980 ft 343 kts 165°
2026-05-05 20:11 47.94838 11.93177 18734 ft 346 kts 165°
2026-05-05 20:11 47.92542 11.94305 19427 ft 350 kts 166°
2026-05-05 20:11 47.90164 11.94885 20162 ft 346 kts 182°
2026-05-05 20:11 47.87748 11.94848 20904 ft 348 kts 184°
2026-05-05 20:12 47.85318 11.94801 21581 ft 351 kts 184°
2026-05-05 20:12 47.82873 11.94754 22230 ft 353 kts 184°
2026-05-05 20:12 47.80406 11.94710 22914 ft 354 kts 184°
2026-05-05 20:12 47.77929 11.94666 23534 ft 357 kts 185°
2026-05-05 20:13 47.75470 11.94616 24063 ft 360 kts 185°
2026-05-05 20:13 47.72957 11.94562 24632 ft 363 kts 185°
2026-05-05 20:13 47.70425 11.94513 25188 ft 366 kts 185°
2026-05-05 20:13 47.67873 11.94461 25688 ft 368 kts 185°
2026-05-05 20:14 47.65302 11.94408 26113 ft 371 kts 184°
2026-05-05 20:14 47.62713 11.94374 26645 ft 374 kts 185°
2026-05-05 20:14 47.60105 11.94324 27114 ft 376 kts 185°
2026-05-05 20:14 47.57473 11.94272 27572 ft 380 kts 185°
2026-05-05 20:15 47.54821 11.94223 28056 ft 382 kts 185°
2026-05-05 20:15 47.52184 11.94171 28483 ft 385 kts 185°
2026-05-05 20:15 47.49497 11.94121 28955 ft 388 kts 185°
2026-05-05 20:15 47.46789 11.94071 29396 ft 390 kts 185°
2026-05-05 20:16 47.44062 11.94020 29794 ft 394 kts 185°
2026-05-05 20:16 47.41342 11.93659 30140 ft 393 kts 191°
2026-05-05 20:16 47.38629 11.93124 30502 ft 394 kts 191°
2026-05-05 20:16 47.35898 11.92586 30836 ft 396 kts 191°
2026-05-05 20:17 47.33200 11.92052 31205 ft 398 kts 191°
2026-05-05 20:17 47.30447 11.91510 31536 ft 400 kts 191°
2026-05-05 20:17 47.27688 11.90965 31868 ft 402 kts 191°
2026-05-05 20:17 47.24912 11.90419 32238 ft 403 kts 191°
2026-05-05 20:18 47.22142 11.89874 32693 ft 401 kts 191°
2026-05-05 20:18 47.19385 11.89339 33009 ft 402 kts 191°
2026-05-05 20:18 47.16583 11.88789 32971 ft 410 kts 192°
2026-05-05 20:19 47.10843 11.87660 32922 ft 421 kts 192°
2026-05-05 20:19 47.05088 11.86350 32946 ft 424 kts 190°
2026-05-05 20:20 46.99254 11.85067 32940 ft 422 kts 195°
2026-05-05 20:20 46.93537 11.83307 32927 ft 417 kts 196°
2026-05-05 20:21 46.87868 11.81513 32965 ft 418 kts 197°
2026-05-05 20:21 46.82228 11.79720 32936 ft 418 kts 197°
2026-05-05 20:22 46.76537 11.77916 32969 ft 416 kts 197°
2026-05-05 20:22 46.70905 11.76068 32891 ft 412 kts 198°
2026-05-05 20:23 46.65272 11.74257 32999 ft 413 kts 201°
2026-05-05 20:23 46.62668 11.72615 33018 ft 405 kts 215°
2026-05-05 20:23 46.60502 11.70057 32997 ft 400 kts 229°
2026-05-05 20:23 46.58883 11.66864 33013 ft 399 kts 241°
2026-05-05 20:24 46.57564 11.63310 32929 ft 397 kts 240°
2026-05-05 20:24 46.54763 11.56453 32948 ft 394 kts 240°
2026-05-05 20:25 46.52217 11.49406 32967 ft 394 kts 243°
2026-05-05 20:25 46.49793 11.42321 32964 ft 394 kts 243°
2026-05-05 20:26 46.46991 11.35535 32983 ft 396 kts 229°
2026-05-05 20:26 46.44867 11.32971 33011 ft 401 kts 216°
2026-05-05 20:26 46.42341 11.31207 33025 ft 407 kts 203°
2026-05-05 20:27 46.36904 11.28984 32959 ft 406 kts 201°
2026-05-05 20:27 46.31439 11.26896 32802 ft 403 kts 200°
2026-05-05 20:27 46.28798 11.25940 32524 ft 389 kts 200°
2026-05-05 20:28 46.26221 11.24980 32169 ft 378 kts 200°
2026-05-05 20:28 46.23676 11.24085 31615 ft 374 kts 199°
2026-05-05 20:28 46.21168 11.23233 31101 ft 368 kts 199°
2026-05-05 20:28 46.18701 11.22398 30633 ft 361 kts 199°
2026-05-05 20:29 46.16274 11.21524 30172 ft 360 kts 200°
2026-05-05 20:29 46.13826 11.20652 29654 ft 365 kts 199°
2026-05-05 20:29 46.11345 11.19762 29186 ft 371 kts 199°
2026-05-05 20:29 46.08858 11.18868 28727 ft 375 kts 199°
2026-05-05 20:30 46.06317 11.17951 28192 ft 377 kts 199°
2026-05-05 20:30 46.03769 11.17031 27701 ft 378 kts 199°
2026-05-05 20:30 46.01218 11.16111 27204 ft 377 kts 199°
2026-05-05 20:30 45.98688 11.15199 26692 ft 373 kts 199°
2026-05-05 20:31 45.96190 11.14293 26222 ft 369 kts 199°
2026-05-05 20:31 45.93711 11.13383 25723 ft 366 kts 199°
2026-05-05 20:31 45.91253 11.12483 25251 ft 363 kts 198°
2026-05-05 20:31 45.88851 11.11607 24791 ft 360 kts 198°
2026-05-05 20:32 45.86431 11.10711 24306 ft 358 kts 198°
2026-05-05 20:32 45.84025 11.09825 23868 ft 355 kts 198°
2026-05-05 20:32 45.81636 11.08934 23387 ft 354 kts 198°
2026-05-05 20:32 45.79269 11.08053 22914 ft 349 kts 198°
2026-05-05 20:33 45.76928 11.07179 22505 ft 348 kts 198°
2026-05-05 20:33 45.74584 11.06298 22023 ft 348 kts 198°
2026-05-05 20:33 45.72246 11.05422 21552 ft 346 kts 198°
2026-05-05 20:33 45.69961 11.04580 21148 ft 343 kts 195°
2026-05-05 20:34 45.67570 11.04328 20741 ft 349 kts 180°
2026-05-05 20:34 45.65183 11.05105 20214 ft 359 kts 162°
2026-05-05 20:34 45.63047 11.07007 19736 ft 367 kts 143°
2026-05-05 20:34 45.61387 11.09821 19270 ft 374 kts 131°
2026-05-05 20:35 45.59915 11.12881 18723 ft 373 kts 130°
2026-05-05 20:35 45.58429 11.15876 18265 ft 367 kts 131°
2026-05-05 20:35 45.57027 11.18916 17771 ft 367 kts 127°
2026-05-05 20:35 45.55705 11.21962 17285 ft 365 kts 127°
2026-05-05 20:36 45.54358 11.25015 16776 ft 363 kts 127°
2026-05-05 20:36 45.53084 11.28188 15833 ft 374 kts 118°
2026-05-05 20:36 45.52092 11.31558 15431 ft 364 kts 117°
2026-05-05 20:36 45.51074 11.34835 14922 ft 359 kts 118°
2026-05-05 20:37 45.50058 11.38056 14457 ft 354 kts 118°
2026-05-05 20:37 45.49049 11.41228 13994 ft 349 kts 118°
2026-05-05 20:37 45.48059 11.44319 13511 ft 346 kts 118°
2026-05-05 20:37 45.47065 11.47412 13088 ft 342 kts 118°
2026-05-05 20:38 45.46081 11.50466 12630 ft 336 kts 118°
2026-05-05 20:38 45.45111 11.53464 12207 ft 331 kts 118°
2026-05-05 20:38 45.44156 11.56420 11742 ft 327 kts 118°
2026-05-05 20:38 45.43206 11.59331 11324 ft 322 kts 118°
2026-05-05 20:39 45.42267 11.62202 10904 ft 318 kts 118°
2026-05-05 20:39 45.41339 11.65040 10479 ft 315 kts 118°
2026-05-05 20:39 45.40431 11.67813 10069 ft 312 kts 118°
2026-05-05 20:39 45.39523 11.70583 9628 ft 309 kts 118°
2026-05-05 20:40 45.38621 11.73333 9253 ft 304 kts 118°
2026-05-05 20:40 45.37730 11.76043 8843 ft 301 kts 118°
2026-05-05 20:40 45.36846 11.78729 8451 ft 298 kts 118°
2026-05-05 20:40 45.35969 11.81391 8053 ft 296 kts 118°
2026-05-05 20:41 45.35038 11.83971 7658 ft 291 kts 127°
2026-05-05 20:41 45.33808 11.86170 7298 ft 285 kts 135°
2026-05-05 20:41 45.32460 11.88224 6908 ft 284 kts 136°
2026-05-05 20:41 45.31131 11.90296 6520 ft 283 kts 135°
2026-05-05 20:42 45.29858 11.92415 6143 ft 283 kts 126°
2026-05-05 20:42 45.29135 11.94994 5806 ft 283 kts 103°
2026-05-05 20:42 45.28838 11.97750 5431 ft 282 kts 100°
2026-05-05 20:42 45.28514 12.00488 5047 ft 281 kts 101°
2026-05-05 20:43 45.28170 12.03214 4653 ft 280 kts 101°
2026-05-05 20:43 45.28070 12.05941 4290 ft 278 kts 79°
2026-05-05 20:43 45.28869 12.08330 3906 ft 270 kts 45°
2026-05-05 20:43 45.30388 12.09756 3590 ft 258 kts 27°
2026-05-05 20:44 45.31871 12.11103 3280 ft 249 kts 41°
2026-05-05 20:44 45.33066 12.12804 2982 ft 238 kts 47°
2026-05-05 20:44 45.34225 12.14328 2994 ft 221 kts 40°
2026-05-05 20:44 45.35385 12.15697 3036 ft 213 kts 42°
2026-05-05 20:45 45.37574 12.18556 3136 ft 214 kts 42°
2026-05-05 20:45 45.38711 12.19988 2878 ft 221 kts 42°
2026-05-05 20:45 45.39835 12.21434 2566 ft 220 kts 44°
2026-05-05 20:46 45.40953 12.22878 2280 ft 213 kts 43°
2026-05-05 20:46 45.42027 12.24251 1997 ft 202 kts 43°
2026-05-05 20:46 45.43041 12.25554 1724 ft 190 kts 44°
2026-05-05 20:46 45.43980 12.26763 1478 ft 174 kts 44°
2026-05-05 20:47 45.44837 12.27866 1243 ft 160 kts 44°
2026-05-05 20:47 45.45634 12.28891 1030 ft 150 kts 44°
2026-05-05 20:47 45.46379 12.29867 828 ft 143 kts 44°
2026-05-05 20:47 45.47082 12.30819 598 ft 138 kts 40°
2026-05-05 20:48 45.47785 12.31690 478 ft 132 kts 41°
2026-05-05 20:48 45.48468 12.32583 300 ft 135 kts 39°
2026-05-05 20:48 45.49184 12.33479 120 ft 138 kts 40°
2026-05-05 20:48 45.49878 12.34365 9 ft 123 kts 42°
2026-05-05 20:49 45.50388 12.35027 8 ft 76 kts 42°
2026-05-05 20:49 45.50642 12.35350 12 ft 14 kts 42°
2026-05-05 20:49 45.50716 12.35397 14 ft 12 kts 11°
2026-05-05 20:49 45.50797 12.35421 14 ft 13 kts 12°
2026-05-05 20:50 45.50883 12.35447 14 ft 3 kts 12°
2026-05-05 20:50 45.50900 12.35452 15 ft 5 kts 12°
2026-05-05 20:50 45.50951 12.35449 16 ft 9 kts 337°
2026-05-05 20:51 45.50983 12.35369 18 ft 10 kts 269°
2026-05-05 20:51 45.50968 12.35262 17 ft 12 kts 256°
2026-05-05 20:51 45.50919 12.35156 18 ft 13 kts 221°
2026-05-05 20:51 45.50909 12.35144 18 ft 0 kts 221°
2026-05-05 20:54 45.50893 12.35123 18 ft 10 kts 221°
2026-05-05 20:54 45.50866 12.35090 17 ft 3 kts 221°
2026-05-05 20:54 45.50843 12.35061 17 ft 3 kts 221°
2026-05-05 20:54 45.50816 12.35026 15 ft 8 kts 221°
2026-05-05 20:55 45.50766 12.34960 14 ft 11 kts 223°
2026-05-05 20:55 45.50742 12.34929 14 ft 5 kts 222°
2026-05-05 20:55 45.50741 12.34928 14 ft 0 kts 222°
2026-05-05 20:55 45.50730 12.34914 14 ft 7 kts 222°
2026-05-05 20:56 45.50677 12.34846 14 ft 14 kts 222°
2026-05-05 20:56 45.50603 12.34735 13 ft 13 kts 255°
2026-05-05 20:56 45.50602 12.34585 14 ft 17 kts 267°
2026-05-05 20:56 45.50592 12.34424 13 ft 11 kts 245°
2026-05-05 20:57 45.50532 12.34346 14 ft 12 kts 206°
2026-05-05 20:57 45.50490 12.34264 15 ft 6 kts 269°
2026-05-05 20:57 45.50489 12.34215 16 ft 0 kts 269°